{"data":{"norad_id":58403,"epoch":"2026-05-24T22:29:41.017056Z","epoch_age_seconds":80166,"freshness":"FRESH","line1":"1 58403U 23180B   26144.93728029 -.00001893  00000+0 -59257-4 0  9995","line2":"2 58403  43.0046 342.2458 0001546 261.5899  98.4778 15.27582782139163","mean_motion":15.27582782,"eccentricity":0.0001546,"inclination_deg":43.0046,"raan_deg":342.2458,"arg_perigee_deg":261.5899,"mean_anomaly_deg":98.4778,"bstar":-5.9257e-5,"rev_number":13916,"period_min":94.266577037132,"perigee_km":481.98002766089,"apogee_km":484.10150382606,"semimajor_km":6861.1777657435,"source":"CELESTRAK","updated_at":"2026-05-25T13:38:18.616601Z"}}